Meteor 2-9 Rocket - Orbit

View from above orbital plane
View from above orbital plane
View from above satellite
View from above satellite

Ground track
Ground track

The orbit data is extracted from the following two-line orbital elements,

1 13719U 82116B   13145.15351696  .00000140  00000-0  65346-4 0  1578
2 13719 081.2550 013.9540 0070766 265.3021 247.6841 14.14388448570561
Epoch (UTC): 25 May 2013 03:41:03
Eccentricity: 0.0070766
inclination: 81.2550°
perigee height: 793 km
apogee height: 895 km
right ascension of ascending node: 13.9540°
argument of perigee: 265.3021°
revolutions per day: 14.14388448
mean anomaly at epoch: 247.6841°
orbit number at epoch: 57056

The dashed part of the orbit path shows where the satellite is in the earth's shadow,  

Developed and maintained by Chris Peat, Heavens-Above GmbH. Please read the updated FAQ before sending e-mail. Imprint. DLR